Content
SEND FEEDBACK

Daily
Averages
Monthly
Summary
United States of America

PUT IN BAY, OHIO


Home > North America > United States > Ohio
Elevation: 561 feet     Latitude: 41 39N     Longitude: 082 48W

WEATHER
 
SELECT A DAY
Number of Records: 122,475;   Date Range: 12/10/00 - 7/11/14
 
SHARE

PRINT THIS DATA

[ ← Previous Day ]
WEATHER ALMANAC - SEPTEMBER 18, 2013
[ Next Day → ]
[ °C ]   °F
Weather ElementAverageHighLow
Temperature61 °F72 °F (2:00 pm)50.7 °F (1:00 am)
Dewpoint53.6 °F58.1 °F (9:00 am)46.4 °F (1:00 am)
Humidity76.6 %94 % (5:00 am)46 % (2:00 pm)
Barometer30.12 in30.19 in (1:00 am)30.04 in (8:00 pm)
Wind Speed3 mph6.9 mph (1:00 pm)
Weather ElementAverage
Wind DirectionSE (132 °)

Weather ElementTotal
Precipitation---
Heating Degree Days3.7 (Base 65)
Growing Degree Days11.4 (Base 50)
Averaged from 27 records on September 18, 2013
WEATHER CONDITIONS BREAKOUT
WIND DIRECTION BREAKOUT
WEATHER BY HOUR - SEPTEMBER 18, 2013
[ °C ]   °F
Local TimeTemperatureDewpointHumidityBarometerVisibilityWind DirectionWind SpeedGust SpeedPrecipitationEventsConditions
1:00 AM50.7 °F46.4 °F85 %30.19 inSE (140°)3.5 mph
2:00 AM54.0 °F48.0 °F73 %30.18 inSSE (150°)3.5 mph
2:00 AM54.0 °F47.8 °F80 %30.18 inSSE (150°)3.5 mph
3:00 AM51.8 °F48.2 °F88 %30.18 inSSE (160°)1.2 mph
4:00 AM51.3 °F47.8 °F88 %30.17 inSouth (190°)2.3 mph
5:00 AM52.7 °F51.1 °F94 %30.16 inSouth (170°)2.3 mph
6:00 AM53.8 °F50.4 °F88 %30.16 inSouth (170°)2.3 mph
7:00 AM52.5 °F49.6 °F90 %30.17 inSSE (160°)1.2 mph
8:00 AM52.0 °F50.0 °F90 %30.18 inCalm
8:00 AM52.2 °F50.0 °F92 %30.18 inCalm
9:00 AM64.2 °F58.1 °F80 %30.17 inSouth (190°)2.3 mph
10:00 AM66.0 °F56.5 °F71 %30.17 inSouth (170°)3.5 mph
11:00 AM66.6 °F56.7 °F70 %30.17 inSouth (190°)5.8 mph
12:00 PM68.0 °F55.9 °F65 %30.15 inSSE (160°)4.6 mph
1:00 PM67.6 °F56.8 °F68 %30.13 inSouth (170°)6.9 mph
2:00 PM72.0 °F56.0 °F46 %30.11 inSE (140°)4.6 mph
2:00 PM71.8 °F55.6 °F57 %30.11 inSE (140°)4.6 mph
3:00 PM70.0 °F55.0 °F59 %30.10 inSSE (150°)6.9 mph
4:00 PM68.5 °F56.5 °F65 %30.07 inSSE (150°)6.9 mph
5:00 PM70.2 °F57.7 °F65 %30.06 inSE (140°)4.6 mph
6:00 PM69.4 °F58.1 °F67 %30.05 inSSE (150°)5.8 mph
7:00 PM67.1 °F55.9 °F67 %30.05 inSE (130°)2.3 mph
8:00 PM62.0 °F56.0 °F73 %30.04 inCalm
8:00 PM62.1 °F55.6 °F79 %30.04 inCalm
9:00 PM59.5 °F55.6 °F87 %30.05 inCalm
10:00 PM57.6 °F54.1 °F88 %30.05 inCalm
11:00 PM58.3 °F56.5 °F94 %30.04 inSE (130°)1.2 mph
Hourly data recorded from CXHA, located miles away from Put In Bay, Ohio







STORIES FROM OUR PARTNERS